THOR ABLESTAR DEB, 753

Orbit data source: Space-Track

THOR ABLESTAR DEB, 753 is space debris in LEO originally from a launch on Thu, 05 Dec 1963 UTC launched from the Air Force Western Test Range (AFWTR). Debris objects in space refer to the collection of defunct objects orbiting the Earth. Examples of debris include non-operational satellites, rocket bodies, and fragments generated from explosions, collisions, or faulty payload assembly.

Loading next visibility...
Identifier
753, 1963-049F
Orbit
LEO
Country
Flag of USUS
Related business
Manufacturer
Unknown
Mission
Spacecraft
Bus & Motor
Unknown
Mass
Unknown
Launch date (UTC)
1963-12-05 (62 years ago)
Launch vehicle
Unknown
Launch site
Air Force Western Test Range (AFWTR)
Object type
Payload
Rocket body
Debris
Shape & HBR
Unknown shape, 0.1 m
Radar Cross Section
Small (<0.1 m²)

Expand to show TLE details & history
Last TLE update: 12 hours ago

TLE from 12 hours ago
0 THOR ABLESTAR DEB
1 00753U 63049F   26130.30824297  .00000258  00000-0  36077-3 0  9995
2 00753  89.9171  73.0484 0025732 317.7978 167.6129 13.54912764 75421
Epoch: 2026-05-10T07:23Z
TLE epoch observation values (Epoch: 2026-05-10T07:23:52.192Z)
Latitude
54.62012°
Longitude
-86.14839°
Altitude
1,082.018 km
Speed
7.307 km/s
True Right ascension
16h 51m 43s
True Declination
54° 27' 53"
Sunlit
Object was in daylight at epoch
Visualization orbit readout
Latitude
Unknown
Longitude
Unknown
Altitude
Unknown
Speed
Unknown
Apparent Right ascension
Unknown
Apparent Declination
Unknown
Sunlit
N/A
Visualization observer readout
Local Sidereal Time
04:01:27
Azimuth
Unknown
Elevation
Unknown
Doppler factor
Unknown
Orbital elements
Apogee altitude
1,070.398 km
Perigee altitude
1,032.163 km
Semi-major axis
7,429.418 km
Eccentricity
0.00257
Inclination
89.9171°
RAAN
73.0484°
Arg. of periapsis
317.7978°
True anomaly
167.67596°
Mean anomaly
167.6129°
Eccentric anomaly
167.64445°
Mean motion
3.38931 °/min
Orbital period
106.22 mins
BSTAR
0.00036077
Loading maneuver chart data...
Computing Atmospheric mass density...
Loading historical data...
Loading historical data...
Loading historical data...
Loading historical data...
Loading historical data...
Loading historical data...
Loading historical data...

Documentation

Showing up to 5 results
|